EW4713 Weather Reports


time (UTC)temp
C
wind
direction
speed
KPH
gust
KPH
rain 1hr
cm
rain 24hr
cm
rain mn
cm
humidity
%
barometer
mb
20260510051829 5 97 0.0 4.8 0.00 0.00 0.00 65 1016.1
20260510051350 5 72 0.0 4.8 0.00 0.00 0.00 65 1015.8
20260510050831 6 157 0.0 4.8 0.00 0.00 0.00 65 1016.3
20260510050329 6 102 0.0 4.8 0.00 0.00 0.00 64 1016.2
20260510045829 6 117 0.0 4.8 0.00 0.00 0.00 63 1016.1
20260510045331 6 114 1.6 4.8 0.00 0.00 0.00 63 1015.8
20260510044830 6 106 0.0 6.4 0.00 0.00 0.00 63 1016.1
20260510044348 6 148 1.6 6.4 0.00 0.00 0.00 62 1016.1
20260510043828 6 126 0.0 6.4 0.00 0.00 0.00 62 1016.1
20260510043330 6 126 1.6 4.8 0.00 0.00 0.00 61 1016.1
20260510042831 6 195 3.2 6.4 0.00 0.00 0.00 61 1015.8
20260510042329 6 101 3.2 6.4 0.00 0.00 0.00 61 1015.8
20260510041829 6 157 1.6 6.4 0.00 0.00 0.00 62 1015.9
20260510040830 6 157 0.0 6.4 0.00 0.00 0.00 62 1015.6
20260510040330 6 160 0.0 6.4 0.00 0.00 0.00 62 1015.9
20260510035831 6 180 0.0 4.8 0.00 0.00 0.00 62 1015.9
20260510034831 6 247 3.2 6.4 0.00 0.00 0.00 61 1015.9
20260510034331 6 169 1.6 6.4 0.00 0.00 0.00 60 1015.7
20260510033830 6 173 1.6 8.0 0.00 0.00 0.00 60 1015.8
20260510033332 6 168 3.2 12.9 0.00 0.00 0.00 59 1015.9
20260510032832 7 114 1.6 12.9 0.00 0.00 0.00 59 1015.7
20260510032330 7 208 6.4 8.0 0.00 0.00 0.00 59 1015.6
20260510031832 7 151 3.2 8.0 0.00 0.00 0.00 59 1015.6
20260510030830 7 180 1.6 6.4 0.00 0.00 0.00 57 1015.5
20260510025830 7 184 3.2 8.0 0.00 0.00 0.00 55 1015.3
20260510025329 7 161 4.8 4.8 0.00 0.00 0.00 54 1015.3
20260510024829 7 196 3.2 4.8 0.00 0.00 0.00 53 1015.4
20260510024331 7 146 3.2 4.8 0.00 0.00 0.00 53 1015.5
20260510023828 7 163 3.2 6.4 0.00 0.00 0.00 53 1015.1
20260510023330 7 90 0.0 6.4 0.00 0.00 0.00 53 1015.0
20260510022828 7 165 3.2 6.4 0.00 0.00 0.00 51 1015.3
20260510022328 7 131 1.6 6.4 0.00 0.00 0.00 51 1015.0
20260510021828 7 144 0.0 6.4 0.00 0.00 0.00 51 1014.9
20260510021327 7 180 0.0 8.0 0.00 0.00 0.00 51 1014.9
20260510020824 7 176 3.2 8.0 0.00 0.00 0.00 50 1014.8
20260510020322 7 143 3.2 6.4 0.00 0.00 0.00 50 1014.7
20260510015820 7 203 0.0 6.4 0.00 0.00 0.00 50 1014.6
20260510014318 7 152 3.2 12.9 0.00 0.00 0.00 49 1014.4
20260510013818 8 126 4.8 14.5 0.00 0.00 0.00 48 1014.2
20260510013319 8 163 9.7 14.5 0.00 0.00 0.00 48 1014.3
20260510012819 8 185 1.6 9.7 0.00 0.00 0.00 48 1014.0
20260510012318 8 151 3.2 9.7 0.00 0.00 0.00 48 1014.0
20260510011819 8 148 4.8 8.0 0.00 0.00 0.00 48 1014.0
20260510011320 8 112 3.2 9.7 0.00 0.00 0.00 48 1014.1
20260510010818 8 199 3.2 9.7 0.00 0.00 0.00 48 1014.0
20260510010318 8 118 4.8 9.7 0.00 0.00 0.00 48 1014.1
20260510005318 8 162 1.6 9.7 0.00 0.00 0.00 47 1014.0
20260510004818 8 180 3.2 9.7 0.00 0.00 0.00 46 1013.5
20260510004318 8 161 9.7 12.9 0.00 0.00 0.00 45 1013.8
20260510003820 8 135 4.8 16.1 0.00 0.00 0.00 45 1013.7
20260510003319 8 208 8.0 16.1 0.00 0.00 0.00 45 1013.7
20260510002820 9 138 11.3 11.3 0.00 0.00 0.00 45 1013.7
20260510002318 9 180 0.0 11.3 0.00 0.00 0.00 45 1013.3
20260510001818 10 178 6.4 11.3 0.00 0.00 0.00 43 1013.5
20260510001318 10 195 3.2 9.7 0.00 0.00 0.00 43 1013.4
20260510000819 10 188 0.0 9.7 0.00 0.00 0.00 41 1013.5
20260510000319 11 88 9.7 12.9 0.00 0.00 0.00 41 1013.4
20260509235818 10 152 6.4 14.5 0.00 0.00 0.00 41 1013.5
20260509235320 10 353 3.2 14.5 0.00 0.00 0.00 41 1013.4
20260509234318 9 200 4.8 19.3 0.00 0.00 0.00 43 1013.3
20260509233818 10 187 6.4 16.1 0.00 0.00 0.00 42 1013.3
20260509233318 10 184 3.2 16.1 0.00 0.00 0.00 42 1013.2
20260509232820 10 165 6.4 11.3 0.00 0.00 0.00 42 1013.2
20260509232318 10 147 3.2 14.5 0.00 0.00 0.00 43 1013.3
20260509231818 9 233 4.8 14.5 0.00 0.00 0.00 43 1013.2
20260509231319 9 183 6.4 11.3 0.00 0.00 0.00 43 1013.1
20260509230816 9 126 4.8 11.3 0.00 0.00 0.00 42 1012.9
20260509230317 10 146 3.2 9.7 0.00 0.00 0.00 43 1012.9
20260509224316 10 157 4.8 14.5 0.00 0.00 0.00 44 1012.9
20260509223817 10 110 9.7 14.5 0.00 0.00 0.00 42 1013.0
20260509223316 10 180 3.2 9.7 0.00 0.00 0.00 43 1012.8
20260509222817 10 188 8.0 11.3 0.00 0.00 0.00 43 1012.7
20260509222316 10 186 11.3 11.3 0.00 0.00 0.00 42 1013.0
20260509221812 10 140 4.8 12.9 0.00 0.00 0.00 43 1012.8
20260509221312 10 176 6.4 12.9 0.00 0.00 0.00 43 1012.9
20260509220813 10 172 0.0 11.3 0.00 0.00 0.00 43 1012.6
20260509220314 10 178 4.8 12.9 0.00 0.00 0.00 43 1012.7
20260509215801 10 237 1.6 12.9 0.00 0.00 0.00 41 1012.7
20260509215306 11 123 4.8 9.7 0.00 0.00 0.00 41 1012.5
20260509214302 10 180 3.2 16.1 0.00 0.00 0.00 41 1012.3
20260509213800 10 150 4.8 20.9 0.00 0.00 0.00 42 1012.6
20260509213302 10 155 8.0 20.9 0.00 0.00 0.00 40 1012.6
20260509212802 11 184 6.4 17.7 0.00 0.00 0.00 40 1012.5
20260509212306 11 169 6.4 16.1 0.00 0.00 0.00 40 1012.5
20260509211804 10 228 3.2 14.5 0.00 0.00 0.00 43 1012.5
20260509211307 10 174 12.9 16.1 0.00 0.00 0.00 42 1012.2
20260509210805 10 157 1.6 16.1 0.00 0.00 0.00 44 1012.5
20260509210306 10 171 8.0 16.1 0.00 0.00 0.00 42 1012.5
20260509205801 10 202 8.0 17.7 0.00 0.00 0.00 42 1012.5
20260509205306 10 159 11.3 17.7 0.00 0.00 0.00 41 1012.2
20260509204805 11 206 6.4 14.5 0.00 0.00 0.00 41 1012.2
20260509204303 10 195 4.8 16.1 0.00 0.00 0.00 42 1012.1
20260509203801 10 182 4.8 16.1 0.00 0.00 0.00 43 1012.1
20260509203302 10 137 4.8 12.9 0.00 0.00 0.00 43 1012.1
20260509202801 10 148 4.8 19.3 0.00 0.00 0.00 43 1012.1
20260509202306 10 206 8.0 19.3 0.00 0.00 0.00 41 1012.0
20260509201802 11 207 4.8 17.7 0.00 0.00 0.00 42 1012.2
20260509201303 11 90 0.0 16.1 0.00 0.00 0.00 43 1012.0
20260509200801 11 180 3.2 17.7 0.00 0.00 0.00 42 1011.7
20260509200304 11 165 6.4 17.7 0.00 0.00 0.00 41 1011.9
20260509195306 12 178 6.4 14.5 0.00 0.00 0.00 38 1011.8
20260509194801 12 108 8.0 14.5 0.00 0.00 0.00 38 1011.7
20260509194302 11 180 3.2 14.5 0.00 0.00 0.00 40 1011.7
20260509193304 11 140 8.0 16.1 0.00 0.00 0.00 41 1011.5
20260509192255 12 188 4.8 20.9 0.00 0.00 0.00 40 1011.4
20260509191755 11 106 3.2 20.9 0.00 0.00 0.00 42 1011.7
20260509191255 12 123 0.0 14.5 0.00 0.00 0.00 39 1011.6
20260509190752 12 154 6.4 12.9 0.00 0.00 0.00 40 1011.5
20260509190252 12 193 11.3 12.9 0.00 0.00 0.00 39 1011.4
20260509185751 12 165 4.8 11.3 0.00 0.00 0.00 40 1011.4
20260509185247 11 180 3.2 16.1 0.00 0.00 0.00 42 1011.4
20260509184743 10 245 3.2 16.1 0.00 0.00 0.00 44 1011.2
20260509183740 11 180 4.8 16.1 0.00 0.00 0.00 41 1011.3
20260509183242 10 129 4.8 14.5 0.00 0.00 0.00 43 1011.2
20260509182733 11 72 3.2 14.5 0.00 0.00 0.00 44 1011.2
20260509182231 10 157 4.8 16.1 0.00 0.00 0.00 43 1011.5
20260509181730 11 129 4.8 16.1 0.00 0.00 0.00 43 1011.2
20260509180730 10 182 4.8 14.5 0.00 0.00 0.00 44 1011.0
20260509180232 10 138 8.0 12.9 0.00 0.00 0.00 42 1011.0
20260509175728 10 144 6.4 12.9 0.00 0.00 0.00 42 1011.2
20260509175230 11 162 4.8 14.5 0.00 0.00 0.00 43 1011.2
20260509174732 10 168 4.8 16.1 0.00 0.00 0.00 42 1011.2
20260509174233 10 191 1.6 16.1 0.00 0.00 0.00 43 1010.7
20260509173732 10 171 8.0 16.1 0.00 0.00 0.00 44 1011.0
20260509173232 10 187 8.0 12.9 0.00 0.00 0.00 43 1010.7
20260509172732 10 240 3.2 12.9 0.00 0.00 0.00 44 1011.2
20260509172225 10 110 3.2 11.3 0.00 0.00 0.00 43 1010.9
20260509171716 10 126 4.8 16.1 0.00 0.00 0.00 43 1010.8
20260509170713 10 168 8.0 12.9 0.00 0.00 0.00 43 1010.8
20260509170215 10 180 4.8 20.9 0.00 0.00 0.00 43 1010.7
20260509165713 8 166 11.3 20.9 0.00 0.00 0.00 43 1010.8
20260509165215 10 164 4.8 11.3 0.00 0.00 0.00 42 1010.9
20260509164713 10 160 4.8 14.5 0.00 0.00 0.00 41 1010.7
20260509163713 9 208 8.0 14.5 0.00 0.00 0.00 44 1011.0
20260509163213 9 83 6.4 14.5 0.00 0.00 0.00 45 1010.8
20260509161713 9 30 3.2 11.3 0.00 0.00 0.00 45 1010.6
20260509160713 9 139 6.4 12.9 0.00 0.00 0.00 45 1010.7
20260509160213 9 180 3.2 14.5 0.00 0.00 0.00 46 1010.6
20260509155717 8 127 3.2 14.5 0.00 0.00 0.00 47 1010.3
20260509155213 8 157 9.7 14.5 0.00 0.00 0.00 45 1010.6
20260509154711 8 95 6.4 20.9 0.00 0.00 0.00 45 1010.2
20260509154211 8 135 6.4 20.9 0.00 0.00 0.00 48 1010.3
20260509153710 8 146 6.4 16.1 0.00 0.00 0.00 47 1010.3
20260509153210 8 180 6.4 16.1 0.00 0.00 0.00 47 1010.2
20260509152712 7 192 8.0 14.5 0.00 0.00 0.00 48 1010.3
20260509152212 7 148 0.0 12.9 0.00 0.00 0.00 48 1010.4
20260509151710 7 145 12.9 12.9 0.00 0.00 0.00 48 1010.2
20260509151212 8 203 4.8 12.9 0.00 0.00 0.00 48 1010.1
20260509150710 7 123 6.4 12.9 0.00 0.00 0.00 49 1010.3
20260509150212 7 106 3.2 14.5 0.00 0.00 0.00 48 1010.2
20260509145708 7 159 4.8 14.5 0.00 0.00 0.00 48 1010.1
20260509145209 7 168 4.8 14.5 0.00 0.00 0.00 48 1010.1
20260509144704 7 90 0.0 12.9 0.00 0.00 0.00 49 1010.0
20260509144204 7 210 3.2 12.9 0.00 0.00 0.00 48 1010.3
20260509143704 7 158 6.4 20.9 0.00 0.00 0.00 48 1010.0
20260509143205 6 127 3.2 20.9 0.00 0.00 0.00 49 1010.1
20260509142203 7 180 3.2 14.5 0.00 0.00 0.00 49 1010.0
20260509141703 7 127 4.8 12.9 0.00 0.00 0.00 49 1009.5
20260509141152 7 75 3.2 11.3 0.00 0.00 0.00 52 1009.9
20260509140644 7 154 0.0 16.1 0.00 0.00 0.00 52 1009.6
20260509140144 6 197 3.2 16.1 0.00 0.00 0.00 53 1009.6
20260509135641 6 176 3.2 16.1 0.00 0.00 0.00 54 1009.8
20260509135140 6 140 4.8 17.7 0.00 0.00 0.00 55 1009.6
20260509134631 6 185 4.8 17.7 0.00 0.00 0.00 55 1009.3
20260509134130 6 148 4.8 9.7 0.00 0.00 0.00 58 1009.3
20260509133629 6 155 4.8 11.3 0.00 0.00 0.00 58 1009.4
20260509133130 5 178 4.8 11.3 0.00 0.00 0.00 57 1009.3
20260509132629 5 108 8.0 11.3 0.00 0.00 0.00 57 1009.2
20260509132130 5 157 1.6 9.7 0.00 0.00 0.00 58 1009.2
20260509131130 5 166 4.8 11.3 0.00 0.00 0.00 60 1009.1
20260509125629 4 112 3.2 11.3 0.00 0.00 0.00 62 1008.5
20260509125130 4 123 1.6 8.0 0.00 0.00 0.00 62 1008.5
20260509124130 3 161 4.8 14.5 0.00 0.00 0.00 62 1008.5
20260509123630 3 150 3.2 12.9 0.00 0.00 0.00 63 1008.3
20260509123129 3 158 9.7 12.9 0.00 0.00 0.00 62 1008.3
20260509122629 3 127 8.0 11.3 0.00 0.00 0.00 62 1008.3
20260509122130 3 90 1.6 9.7 0.00 0.00 0.00 62 1007.8
20260509121628 3 96 3.2 9.7 0.00 0.00 0.00 62 1007.9
20260509121132 3 176 0.0 8.0 0.00 0.00 0.00 61 1007.9
20260509120630 3 124 3.2 6.4 0.00 0.00 0.00 62 1008.0
20260509120130 3 182 4.8 8.0 0.00 0.00 0.00 62 1007.9
20260509115630 3 150 3.2 9.7 0.00 0.00 0.00 61 1007.7
20260509114624 3 177 3.2 9.7 0.00 0.00 0.00 62 1007.5
20260509113621 3 90 0.0 9.7 0.00 0.00 0.00 62 1007.3
20260509113119 3 121 3.2 8.0 0.00 0.00 0.00 60 1007.2
20260509112121 3 161 3.2 9.7 0.00 0.00 0.00 60 1006.8
20260509111619 3 142 3.2 8.0 0.00 0.00 0.00 61 1006.7
20260509111115 3 184 0.0 8.0 0.00 0.00 0.00 59 1006.8
20260509110614 3 165 0.0 4.8 0.00 0.00 0.00 60 1006.7
20260509110115 3 106 0.0 4.8 0.00 0.00 0.00 59 1006.5
20260509105114 3 66 0.0 6.4 0.00 0.00 0.00 60 1006.3
20260509103610 3 180 1.6 6.4 0.00 0.00 0.00 59 1006.4
20260509103132 4 157 1.6 6.4 0.00 0.00 0.00 58 1006.5
20260509102608 4 132 3.2 6.4 0.00 0.00 0.00 57 1006.4
20260509102109 4 152 3.2 6.4 0.00 0.00 0.00 58 1006.4
20260509101609 5 185 3.2 6.4 0.00 0.00 0.00 57 1006.1
20260509101103 5 212 4.8 12.9 0.00 0.00 0.00 57 1006.3
20260509095601 5 206 1.6 6.4 0.00 0.00 0.00 59 1005.9
20260509095101 5 157 1.6 8.0 0.00 0.00 0.00 59 1006.0
20260509094603 5 188 3.2 8.0 0.00 0.00 0.00 59 1006.1
20260509094102 5 180 1.6 8.0 0.00 0.00 0.00 59 1005.8
20260509093602 5 106 0.0 9.7 0.00 0.00 0.00 59 1005.7
20260509092602 5 166 0.0 8.0 0.00 0.00 0.00 60 1005.6
20260509091600 6 101 3.2 9.7 0.00 0.00 0.00 61 1005.3
20260509091100 6 157 0.0 8.0 0.00 0.00 0.00 62 1005.4
20260509090602 6 181 6.4 8.0 0.00 0.00 0.00 66 1005.2
20260509090101 5 192 3.2 4.8 0.00 0.00 0.00 71 1005.0
20260509085601 6 148 3.2 6.4 0.00 0.00 0.00 74 1005.0
20260509085054 6 201 3.2 6.4 0.00 0.00 0.00 74 1005.0
20260509084552 5 117 3.2 8.0 0.00 0.00 0.00 76 1004.8
20260509084051 6 168 3.2 8.0 0.00 0.00 0.00 75 1004.7
20260509083550 6 180 0.0 6.4 0.00 0.00 0.00 76 1004.8
20260509083059 6 172 3.2 8.0 0.00 0.00 0.00 76 1004.6
20260509082550 6 117 1.6 8.0 0.00 0.00 0.00 77 1004.8
20260509082051 6 144 4.8 4.8 0.00 0.00 0.00 78 1004.3
20260509081548 5 140 0.0 4.8 0.00 0.00 0.00 79 1004.4
20260509081049 5 146 3.2 6.4 0.00 0.00 0.00 80 1004.5
20260509080549 5 157 1.6 6.4 0.00 0.00 0.00 79 1004.4
20260509080057 6 102 3.2 4.8 0.00 0.00 0.00 80 1004.5
20260509075048 6 97 0.0 6.4 0.00 0.00 0.00 79 1003.9
20260509074548 6 97 1.6 6.4 0.00 0.00 0.00 78 1004.0
20260509074045 6 90 1.6 6.4 0.00 0.00 0.00 79 1004.2
20260509073044 6 126 1.6 6.4 0.00 0.00 0.00 78 1004.2
20260509072537 6 112 4.8 6.4 0.00 0.00 0.00 77 1004.3
20260509072035 6 97 1.6 4.8 0.00 0.00 0.00 77 1004.1
20260509071535 6 117 0.0 8.0 0.00 0.00 0.00 76 1004.1
20260509071036 6 117 1.6 8.0 0.00 0.00 0.00 76 1004.4
20260509070538 6 74 0.0 4.8 0.00 0.00 0.00 77 1004.1
20260509065536 6 117 3.2 3.2 0.00 0.00 0.00 77 1004.2
20260509065037 6 66 0.0 3.2 0.00 0.00 0.00 75 1004.0
20260509064535 6 83 1.6 3.2 0.00 0.00 0.00 76 1004.3
20260509063537 6 90 0.0 4.8 0.00 0.00 0.00 75 1004.3
20260509063036 6 90 0.0 4.8 0.00 0.00 0.00 75 1004.1
20260509062535 6 90 1.6 3.2 0.00 0.00 0.00 75 1004.1
20260509062035 6 103 1.6 3.2 0.00 0.00 0.00 74 1004.2
20260509061534 6 82 1.6 3.2 0.00 0.00 0.00 73 1004.1
20260509061035 6 74 0.0 3.2 0.00 0.00 0.00 74 1004.3
20260509060529 6 151 0.0 3.2 0.00 0.00 0.00 73 1004.2
20260509060029 6 131 0.0 3.2 0.00 0.00 0.00 75 1004.3
20260509055530 6 83 0.0 3.2 0.00 0.00 0.00 76 1004.2
20260509055029 6 74 0.0 3.2 0.00 0.00 0.00 75 1004.3
20260509054029 6 90 3.2 6.4 0.00 0.00 0.00 74 1004.3
20260509053530 7 157 0.0 6.4 0.00 0.00 0.00 73 1004.2
20260509053029 7 124 3.2 6.4 0.00 0.00 0.00 71 1004.4
20260509052531 7 90 1.6 6.4 0.00 0.00 0.00 71 1004.6